TimeCEST,TemperatureF,Dew PointF,Humidity,Sea Level PressureIn,VisibilityMPH,Wind Direction,Wind SpeedMPH,Gust SpeedMPH,PrecipitationIn,Events,Conditions,WindDirDegrees,DateUTC
12:45 AM,59.0,59.0,100,30.04,2.8,West,11.5,-,N/A,,Overcast,270,2012-10-02 22:45:00
1:45 AM,57.2,57.2,100,30.04,2.8,West,4.6,-,N/A,,Overcast,260,2012-10-02 23:45:00
2:00 AM,58,57,95,30.04,3,West,4.5,,,,Mist,260,2012-10-03 00:00:00
2:45 AM,57.2,57.2,100,30.04,2.8,WSW,8.1,-,N/A,,Overcast,240,2012-10-03 00:45:00
3:45 AM,57.2,57.2,100,30.04,2.5,SW,8.1,-,N/A,,Mostly Cloudy,230,2012-10-03 01:45:00
4:45 AM,55.4,55.4,100,30.04,2.5,WSW,6.9,-,N/A,,Mostly Cloudy,250,2012-10-03 02:45:00
5:45 AM,55.4,55.4,100,30.04,-9999.0,WSW,8.1,-,N/A,,Clear,250,2012-10-03 03:45:00
6:15 AM,55.4,55.4,100,30.04,-9999.0,West,8.1,-,N/A,,Clear,260,2012-10-03 04:15:00
6:45 AM,55.4,55.4,100,30.04,4.3,WSW,6.9,-,N/A,,Scattered Clouds,250,2012-10-03 04:45:00
7:15 AM,55.4,53.6,94,30.04,5.0,WSW,5.8,-,N/A,,Partly Cloudy,250,2012-10-03 05:15:00
7:45 AM,55.4,53.6,94,30.06,5.6,WSW,6.9,-,N/A,,Partly Cloudy,250,2012-10-03 05:45:00
8:00 AM,56,54,91,30.05,6,WSW,6.7,,,,Partly Cloudy,250,2012-10-03 06:00:00
8:15 AM,57.2,53.6,88,30.06,-9999.0,SW,5.8,-,N/A,,Clear,230,2012-10-03 06:15:00
8:45 AM,59.0,55.4,88,30.06,-9999.0,WSW,5.8,-,N/A,,Clear,240,2012-10-03 06:45:00
9:15 AM,60.8,53.6,77,30.06,-9999.0,West,8.1,-,N/A,,Clear,260,2012-10-03 07:15:00
9:45 AM,60.8,55.4,82,30.09,-9999.0,WSW,6.9,-,N/A,,Clear,250,2012-10-03 07:45:00
10:15 AM,62.6,53.6,72,30.09,-9999.0,WSW,8.1,-,N/A,,Clear,250,2012-10-03 08:15:00
10:45 AM,64.4,55.4,73,30.09,6.2,West,8.1,-,N/A,,Partly Cloudy,260,2012-10-03 08:45:00
11:15 AM,66.2,55.4,68,30.09,6.2,WSW,8.1,-,N/A,,Partly Cloudy,250,2012-10-03 09:15:00
11:45 AM,66.2,55.4,68,30.09,6.2,West,8.1,-,N/A,,Partly Cloudy,270,2012-10-03 09:45:00
12:15 PM,68.0,55.4,64,30.09,6.2,West,10.4,-,N/A,,Partly Cloudy,280,2012-10-03 10:15:00
12:45 PM,68.0,53.6,60,30.09,6.2,West,10.4,-,N/A,,Partly Cloudy,280,2012-10-03 10:45:00
1:15 PM,69.8,51.8,53,30.06,6.2,West,12.7,-,N/A,,Partly Cloudy,270,2012-10-03 11:15:00
1:45 PM,69.8,51.8,53,30.06,6.2,WNW,12.7,-,N/A,,Scattered Clouds,290,2012-10-03 11:45:00
2:00 PM,69,52,44,30.06,31,WNW,11.2,,,,Partly Cloudy,290,2012-10-03 12:00:00
2:15 PM,69.8,55.4,60,30.06,6.2,West,15.0,-,N/A,,Scattered Clouds,280,2012-10-03 12:15:00
2:45 PM,69.8,53.6,56,30.06,6.2,West,12.7,-,N/A,,Partly Cloudy,280,2012-10-03 12:45:00
3:15 PM,69.8,53.6,56,30.06,6.2,West,15.0,-,N/A,,Partly Cloudy,280,2012-10-03 13:15:00
3:45 PM,69.8,51.8,53,30.04,6.2,West,12.7,-,N/A,,Partly Cloudy,270,2012-10-03 13:45:00
4:15 PM,68.0,51.8,56,30.04,6.2,West,10.4,-,N/A,,Partly Cloudy,270,2012-10-03 14:15:00
4:45 PM,69.8,53.6,56,30.04,6.2,West,10.4,-,N/A,,Partly Cloudy,270,2012-10-03 14:45:00
5:15 PM,68.0,51.8,56,30.04,6.2,West,9.2,-,N/A,,Partly Cloudy,270,2012-10-03 15:15:00
6:15 PM,64.4,53.6,68,30.04,6.2,West,4.6,-,N/A,,Partly Cloudy,270,2012-10-03 16:15:00
6:45 PM,62.6,51.8,68,30.06,6.2,WSW,4.6,-,N/A,,Partly Cloudy,240,2012-10-03 16:45:00
7:15 PM,60.8,53.6,77,30.06,-9999.0,West,2.3,-,N/A,,Clear,280,2012-10-03 17:15:00
7:45 PM,59.0,53.6,82,30.06,-9999.0,West,4.6,-,N/A,,Clear,270,2012-10-03 17:45:00
8:00 PM,59,53,76,30.06,25,West,4.5,,,,Partly Cloudy,270,2012-10-03 18:00:00
8:15 PM,57.2,51.8,82,30.06,-9999.0,WSW,3.5,-,N/A,,Clear,250,2012-10-03 18:15:00
8:45 PM,57.2,53.6,88,30.06,-9999.0,SW,1.2,-,N/A,,Clear,220,2012-10-03 18:45:00
9:15 PM,57.2,53.6,88,30.06,-9999.0,SW,2.3,-,N/A,,Clear,220,2012-10-03 19:15:00
9:45 PM,55.4,53.6,94,30.06,-9999.0,SW,2.3,-,N/A,,Clear,230,2012-10-03 19:45:00
10:45 PM,53.6,51.8,94,30.06,6.2,SSW,2.3,-,N/A,Fog,Shallow Fog,200,2012-10-03 20:45:00
11:45 PM,53.6,51.8,94,30.06,6.2,SSW,1.2,-,N/A,Fog,Shallow Fog,200,2012-10-03 21:45:00